Limnos, Greece

6:36 AM EEST on September 01, 2016 (GMT +0300)
Limnos

Weather History for LGLM - March, 2013

Change the Weather History Date:

Sunday, March 3, 2013

  Actual Average Record
Temperature  
Mean Temperature 49 °F -  
Max Temperature 52 °F 56 °F 66 °F (2008)
Min Temperature 44 °F 44 °F 35 °F (2003)
Degree Days  
Heating Degree Days 16    
Moisture  
Dew Point 39 °F    
Average Humidity 68    
Maximum Humidity 82    
Minimum Humidity 52    
Precipitation  
Precipitation 0.00 in 0.07 in - ()
Sea Level Pressure  
Sea Level Pressure 29.95 in    
Wind  
Wind Speed 16 mph ()    
Max Wind Speed 25 mph    
Max Gust Speed 37 mph    
Visibility 6.2 miles    
Events      
Averages and records for this station are not official NWS values.
T = Trace of Precipitation, MM = Missing Value Source: Averaged Metar Reports

Daily Weather History Graph

Daily Weather History Graph

Search for Another Location

Airport or City:

Trip Planner

Search our weather history database for the weather conditions in past years. The results will help you decide how hot, cold, wet, or windy it might be!

Date:

Astronomy

Mar. 03, 2013 Rise Set
Actual Time 6:49 AM EET 6:13 PM EET
Civil Twilight 6:22 AM EET 6:40 PM EET
Nautical Twilight 5:51 AM EET 7:11 PM EET
Astronomical Twilight 5:19 AM EET 7:42 PM EET
Moon No Moon Rise 9:49 AM EET (3/3)
Length of Visible Light 12h 17m
Length of Day
11h 23m
Waning Gibbous, 67% of the Moon is Illuminated
Mar 3
Waning Gibbous
Mar 4
Last Quarter
Mar 11
New
Mar 19
First Quarter
Mar 27
Full

Hourly Weather History & Observations

Time (EET) Temp. Windchill Dew Point Humidity Pressure Visibility Wind Dir Wind Speed Gust Speed Precip Events Conditions
12:20 AM 51.8 °F - 44.6 °F 76% 29.98 in - NE 17.3 mph - N/A   Unknown
12:50 AM 51.8 °F - 44.6 °F 76% 29.98 in - NE 16.1 mph - N/A   Unknown
1:20 AM 50.0 °F - 44.6 °F 82% 29.98 in - NE 10.4 mph - N/A   Unknown
1:50 AM 50.0 °F - 44.6 °F 82% 29.98 in 6.2 mi ENE 11.5 mph - N/A   Mostly Cloudy
2:00 AM 51 °F - 44 °F 68% 29.99 in 6 mi ENE 11.5 mph - -   Scattered Clouds
2:20 AM 50.0 °F - 41.0 °F 71% 29.98 in - NE 15.0 mph - N/A   Unknown
2:50 AM 50.0 °F - 39.2 °F 66% 29.98 in - ENE 18.4 mph - N/A   Unknown
3:20 AM 48.2 °F - 39.2 °F 71% 29.95 in - NE 15.0 mph - N/A   Unknown
3:50 AM 48.2 °F - 41.0 °F 76% 29.95 in - NE 16.1 mph - N/A   Unknown
4:20 AM 48.2 °F - 41.0 °F 76% 29.95 in - ENE 17.3 mph - N/A   Unknown
4:50 AM 48.2 °F - 39.2 °F 71% 29.95 in - ENE 21.9 mph - N/A   Unknown
5:20 AM 48.2 °F - 39.2 °F 71% 29.95 in - ENE 19.6 mph - N/A   Unknown
5:50 AM 48.2 °F - 39.2 °F 71% 29.95 in 6.2 mi NE 21.9 mph 33.4 mph N/A   Mostly Cloudy
6:20 AM 48.2 °F - 39.2 °F 71% 29.95 in 6.2 mi ENE 18.4 mph 29.9 mph N/A   Mostly Cloudy
6:50 AM 48.2 °F - 39.2 °F 71% 29.95 in 6.2 mi ENE 20.7 mph 32.2 mph N/A   Mostly Cloudy
7:20 AM 48.2 °F - 41.0 °F 76% 29.95 in 6.2 mi ENE 16.1 mph 27.6 mph N/A   Mostly Cloudy
7:50 AM 48.2 °F - 41.0 °F 76% 29.95 in 6.2 mi ENE 15.0 mph 26.5 mph N/A   Mostly Cloudy
8:00 AM 48 °F - 40 °F 67% 29.97 in 6 mi ENE 15.0 mph - -   Partly Cloudy
8:20 AM 48.2 °F - 39.2 °F 71% 29.98 in 6.2 mi ENE 16.1 mph 27.6 mph N/A   Mostly Cloudy
8:50 AM 48.2 °F - 37.4 °F 66% 29.98 in 6.2 mi ENE 19.6 mph 31.1 mph N/A   Mostly Cloudy
9:20 AM 48.2 °F - 41.0 °F 76% 29.98 in 6.2 mi ENE 16.1 mph 27.6 mph N/A   Mostly Cloudy
9:50 AM 48.2 °F - 41.0 °F 76% 29.98 in 6.2 mi NE 21.9 mph 33.4 mph N/A   Mostly Cloudy
10:20 AM 50.0 °F - 41.0 °F 71% 29.95 in 6.2 mi NE 21.9 mph 33.4 mph N/A   Scattered Clouds
10:50 AM 50.0 °F - 41.0 °F 71% 29.95 in 6.2 mi NE 23.0 mph 34.5 mph N/A   Scattered Clouds
11:20 AM 48.2 °F - 41.0 °F 76% 29.98 in 6.2 mi NE 21.9 mph 33.4 mph N/A   Mostly Cloudy
11:50 AM 48.2 °F - 41.0 °F 76% 29.95 in 6.2 mi NE 21.9 mph 33.4 mph N/A   Mostly Cloudy
12:20 PM 50.0 °F - 39.2 °F 66% 29.95 in 6.2 mi NE 21.9 mph 33.4 mph N/A   Mostly Cloudy
12:50 PM 50.0 °F - 39.2 °F 66% 29.95 in 6.2 mi NE 20.7 mph 32.2 mph N/A   Mostly Cloudy
1:50 PM 50.0 °F - 39.2 °F 66% 29.92 in 6.2 mi NE 24.2 mph 35.7 mph N/A   Mostly Cloudy
2:00 PM 50 °F - 38 °F 54% 29.94 in 6 mi NE 24.2 mph - -   Scattered Clouds
2:20 PM 50.0 °F - 41.0 °F 71% 29.92 in 6.2 mi NNE 23.0 mph 34.5 mph N/A   Mostly Cloudy
2:50 PM 50.0 °F - 39.2 °F 66% 29.92 in 6.2 mi NE 23.0 mph - N/A   Scattered Clouds
3:20 PM 51.8 °F - 39.2 °F 62% 29.92 in 6.2 mi NE 25.3 mph - N/A   Partly Cloudy
3:50 PM 51.8 °F - 39.2 °F 62% 29.89 in 6.2 mi NE 23.0 mph 34.5 mph N/A   Partly Cloudy
4:20 PM 50.0 °F - 39.2 °F 66% 29.89 in - NE 25.3 mph 36.8 mph N/A   Clear
4:50 PM 50.0 °F - 37.4 °F 62% 29.89 in - NE 21.9 mph 33.4 mph N/A   Clear
5:20 PM 50.0 °F - 37.4 °F 62% 29.89 in 6.2 mi NE 20.7 mph 32.2 mph N/A   Partly Cloudy
5:50 PM 50.0 °F - 37.4 °F 62% 29.89 in 6.2 mi NE 20.7 mph - N/A   Partly Cloudy
6:20 PM 48.2 °F - 37.4 °F 66% 29.92 in 6.2 mi NE 19.6 mph - N/A   Partly Cloudy
6:50 PM 48.2 °F - 35.6 °F 62% 29.92 in 6.2 mi NE 17.3 mph 28.8 mph N/A   Partly Cloudy
7:20 PM 48.2 °F - 35.6 °F 62% 29.92 in 6.2 mi NE 13.8 mph 25.3 mph N/A   Partly Cloudy
7:50 PM 48.2 °F - 35.6 °F 62% 29.92 in 6.2 mi ENE 12.7 mph - N/A   Partly Cloudy
8:00 PM 48 °F - 36 °F 52% 29.94 in 6 mi ENE 12.7 mph - -   Scattered Clouds
8:20 PM 48.2 °F - 35.6 °F 62% 29.95 in - NE 12.7 mph - N/A   Unknown
8:50 PM 48.2 °F - 37.4 °F 66% 29.95 in - NE 12.7 mph - N/A   Unknown
9:20 PM 46.4 °F 41.1 °F 35.6 °F 66% 29.95 in - NE 11.5 mph - N/A   Unknown
9:50 PM 46.4 °F 41.5 °F 35.6 °F 66% 29.95 in - NE 10.4 mph - N/A   Unknown
10:20 PM 46.4 °F 41.1 °F 35.6 °F 66% 29.98 in - NE 11.5 mph - N/A   Unknown
10:50 PM 46.4 °F 41.1 °F 33.8 °F 62% 29.98 in - NNE 11.5 mph - N/A   Unknown
11:20 PM 46.4 °F 41.5 °F 33.8 °F 62% 29.98 in - NE 10.4 mph - N/A   Unknown
11:50 PM 44.6 °F 40.2 °F 33.8 °F 66% 29.98 in - NE 8.1 mph - N/A   Unknown